contact:dominique.lefevre@mio.osupytheas.fr, maurice.libes@osupytheas.fr, didier.mallarino@osupytheas.fr
Project:EMSO http://www.emso-fr.org/EMSO-France
Depth: 2436.0 m
Title:EMSO Ligure Ouest : Data MII capteur AQUADOPP
Date,Latitude,Longitude,X_East,Y_North,Z_Up,Amplitude_X,Amplitude_Y,Amplitude_Z,Batterie,SoundSpeed,Heading,Pitch,Roll,Pressure,TIS,Speed,Direction
, degrees North, degrees East, m.s-1, m.s-1,m.s-1, 1, 1, 1, Volt, m.s-1, degree, degree, degree, dbar, degree_C, m.s-1, degree
2019-11-30T00:04:03,42.805,6.029,0.02,0.009,0.013,106.0,109.0,102.0,13.3,1505.3,327.2,-0.7,1.8,2470.267,13.31,0.021,65.8
2019-11-30T00:07:03,42.805,6.029,0.031,0.0,-0.024,105.0,111.0,102.0,13.4,1505.3,325.4,-0.7,1.8,2470.299,13.32,0.03,90.0
2019-11-30T00:10:03,42.805,6.029,0.012,0.004,-0.042,106.0,109.0,103.0,13.3,1505.3,326.9,-0.7,1.8,2470.217,13.32,0.012,71.6
2019-11-30T00:13:03,42.805,6.029,0.024,0.0,0.003,105.0,109.0,103.0,13.3,1505.3,325.9,-0.7,1.8,2470.246,13.33,0.024,90.0
2019-11-30T00:16:03,42.805,6.029,0.027,0.022,0.028,105.0,109.0,101.0,13.4,1505.3,328.5,-0.7,1.8,2470.234,13.33,0.034,50.8
2019-11-30T00:19:03,42.805,6.029,0.039,0.014,-0.003,106.0,109.0,101.0,13.4,1505.3,324.8,-0.7,1.8,2470.249,13.33,0.041,70.3
2019-11-30T00:22:03,42.805,6.029,0.032,0.022,-0.027,104.0,110.0,102.0,13.4,1505.3,328.0,-0.7,1.8,2470.288,13.33,0.038,55.5
2019-11-30T00:25:03,42.805,6.029,0.021,0.009,0.01,107.0,109.0,102.0,13.4,1505.3,326.6,-0.7,1.8,2470.229,13.33,0.022,66.8
2019-11-30T00:28:03,42.805,6.029,0.015,0.039,-0.022,106.0,110.0,102.0,13.4,1505.3,325.3,-0.7,1.8,2470.248,13.33,0.041,21.0
2019-11-30T00:31:03,42.805,6.029,0.014,0.009,-0.013,107.0,109.0,100.0,13.4,1505.3,324.3,-0.7,1.8,2470.209,13.33,0.016,57.3
2019-11-30T00:34:03,42.805,6.029,0.007,0.015,-0.02,106.0,110.0,102.0,13.4,1505.3,323.3,-0.7,1.8,2470.261,13.33,0.016,25.0
2019-11-30T00:37:03,42.805,6.029,0.035,0.002,-0.019,107.0,109.0,103.0,13.4,1505.3,326.8,-0.7,1.8,2470.265,13.33,0.035,86.7
2019-11-30T00:40:03,42.805,6.029,0.009,0.001,-0.043,106.0,109.0,101.0,13.4,1505.3,323.3,-0.7,1.8,2470.224,13.33,0.009,83.7
2019-11-30T00:43:03,42.805,6.029,0.051,0.007,0.005,107.0,110.0,102.0,13.3,1505.3,327.9,-0.7,1.8,2470.203,13.33,0.051,82.2
2019-11-30T00:46:03,42.805,6.029,0.024,0.019,-0.021,107.0,109.0,101.0,13.4,1505.3,324.1,-0.7,1.8,2470.248,13.33,0.03,51.6
2019-11-30T00:49:03,42.805,6.029,0.029,0.021,0.004,106.0,109.0,100.0,13.4,1505.3,324.6,-0.7,1.8,2470.252,13.33,0.035,54.1
2019-11-30T00:52:03,42.805,6.029,0.037,0.006,-0.003,104.0,109.0,102.0,13.4,1505.3,325.0,-0.7,1.8,2470.237,13.33,0.037,80.8
2019-11-30T00:55:03,42.805,6.029,0.03,-0.006,-0.024,107.0,110.0,103.0,13.4,1505.3,327.2,-0.7,1.8,2470.199,13.33,0.03,101.3
2019-11-30T00:58:03,42.805,6.029,0.031,0.002,-0.017,106.0,110.0,102.0,13.4,1505.3,327.3,-0.7,1.8,2470.243,13.33,0.031,86.3
2019-11-30T01:04:03,42.805,6.029,0.024,0.017,-0.02,106.0,111.0,104.0,13.4,1505.3,323.2,-0.8,1.8,2470.277,13.31,0.029,54.7
2019-11-30T01:07:03,42.805,6.029,0.033,0.006,-0.006,106.0,111.0,102.0,13.4,1505.3,324.1,-0.8,1.8,2470.217,13.32,0.033,79.7
2019-11-30T01:10:03,42.805,6.029,0.017,0.009,0.006,107.0,110.0,102.0,13.3,1505.3,323.2,-0.7,1.9,2470.222,13.32,0.019,62.1
2019-11-30T01:13:03,42.805,6.029,0.035,-0.016,0.016,108.0,109.0,102.0,13.4,1505.3,325.3,-0.7,1.8,2470.194,13.33,0.038,114.6
2019-11-30T01:16:03,42.805,6.029,0.031,0.01,-0.005,107.0,110.0,103.0,13.4,1505.3,324.9,-0.7,1.8,2470.19,13.33,0.032,72.1
2019-11-30T01:19:03,42.805,6.029,0.013,-0.005,-0.001,105.0,110.0,102.0,13.4,1505.3,324.0,-0.7,1.8,2470.205,13.33,0.013,111.0
2019-11-30T01:22:03,42.805,6.029,0.027,0.008,-0.028,106.0,110.0,103.0,13.4,1505.3,325.0,-0.7,1.9,2470.227,13.33,0.028,73.5
2019-11-30T01:25:03,42.805,6.029,0.011,0.006,-0.004,105.0,110.0,102.0,13.4,1505.3,325.2,-0.7,1.9,2470.227,13.33,0.012,61.4
2019-11-30T01:28:03,42.805,6.029,0.016,0.006,-0.035,106.0,111.0,102.0,13.4,1505.3,323.3,-0.7,1.9,2470.197,13.33,0.017,69.4
2019-11-30T01:31:03,42.805,6.029,0.024,0.013,0.003,105.0,110.0,103.0,13.4,1505.3,325.7,-0.7,1.8,2470.218,13.33,0.027,61.6
2019-11-30T01:34:03,42.805,6.029,0.011,0.009,0.002,105.0,110.0,102.0,13.4,1505.3,324.4,-0.7,1.8,2470.227,13.33,0.014,50.7
2019-11-30T01:37:03,42.805,6.029,0.015,0.005,-0.014,107.0,110.0,103.0,13.3,1505.3,326.4,-0.7,1.8,2470.186,13.33,0.015,71.6
2019-11-30T01:40:03,42.805,6.029,0.038,0.014,-0.016,106.0,111.0,102.0,13.4,1505.3,326.6,-0.7,1.8,2470.217,13.33,0.04,69.8
2019-11-30T01:43:03,42.805,6.029,0.03,0.013,-0.015,105.0,111.0,101.0,13.4,1505.3,326.5,-0.7,1.9,2470.186,13.33,0.032,66.6
2019-11-30T01:46:03,42.805,6.029,0.045,0.0,-0.006,105.0,111.0,102.0,13.3,1505.3,325.4,-0.7,1.8,2470.217,13.33,0.045,90.0
2019-11-30T01:49:03,42.805,6.029,0.002,0.019,-0.009,107.0,112.0,103.0,13.4,1505.3,324.3,-0.8,1.8,2470.198,13.33,0.019,6.0
2019-11-30T01:52:03,42.805,6.029,0.014,0.013,-0.032,106.0,112.0,102.0,13.4,1505.3,324.7,-0.7,1.8,2470.229,13.33,0.019,47.1
2019-11-30T01:55:03,42.805,6.029,0.041,0.031,0.034,106.0,110.0,102.0,13.4,1505.3,325.3,-0.8,1.8,2470.23,13.33,0.051,52.9
2019-11-30T01:58:03,42.805,6.029,0.049,0.014,-0.001,106.0,110.0,102.0,13.3,1505.3,325.0,-0.7,1.8,2470.211,13.33,0.05,74.1
2019-11-30T02:04:03,42.805,6.029,0.027,0.012,0.014,107.0,110.0,103.0,13.4,1505.3,322.8,-0.8,1.8,2470.199,13.31,0.029,66.0
2019-11-30T02:07:03,42.805,6.029,0.005,0.025,-0.001,107.0,111.0,103.0,13.4,1505.3,325.1,-0.7,1.8,2470.247,13.32,0.025,11.3
2019-11-30T02:10:03,42.805,6.029,0.025,0.002,-0.011,105.0,110.0,103.0,13.4,1505.3,323.3,-0.7,1.8,2470.193,13.32,0.025,85.4
2019-11-30T02:13:03,42.805,6.029,0.032,0.018,-0.006,105.0,111.0,102.0,13.3,1505.3,326.7,-0.7,1.8,2470.181,13.33,0.036,60.6
2019-11-30T02:16:03,42.805,6.029,0.027,0.02,-0.031,106.0,111.0,102.0,13.4,1505.3,327.2,-0.7,1.8,2470.221,13.33,0.033,53.5
2019-11-30T02:19:03,42.805,6.029,0.035,0.041,0.002,107.0,110.0,102.0,13.4,1505.3,327.8,-0.7,1.9,2470.21,13.33,0.053,40.5
2019-11-30T02:22:03,42.805,6.029,0.024,-0.002,-0.023,105.0,112.0,103.0,13.4,1505.3,326.3,-0.7,1.8,2470.23,13.33,0.024,94.8
2019-11-30T02:25:03,42.805,6.029,0.04,0.02,0.016,104.0,112.0,103.0,13.4,1505.3,328.0,-0.7,1.9,2470.222,13.33,0.044,63.4
2019-11-30T02:28:03,42.805,6.029,0.012,-0.007,-0.019,106.0,113.0,102.0,13.4,1505.3,323.4,-0.7,1.8,2470.215,13.33,0.013,120.3
2019-11-30T02:34:03,42.805,6.029,0.005,0.026,-0.021,107.0,111.0,102.0,13.4,1505.3,323.2,-0.8,1.8,2470.222,13.31,0.026,10.9
2019-11-30T02:37:03,42.805,6.029,0.012,0.035,-0.022,106.0,111.0,102.0,13.4,1505.3,326.4,-0.7,1.8,2470.217,13.32,0.037,18.9
2019-11-30T02:40:03,42.805,6.029,0.012,0.023,-0.003,107.0,111.0,101.0,13.4,1505.3,328.6,-0.7,1.8,2470.225,13.32,0.025,27.6
2019-11-30T02:43:03,42.805,6.029,0.0,0.032,0.019,106.0,110.0,103.0,13.4,1505.3,325.3,-0.7,1.8,2470.21,13.33,0.032,0.0
2019-11-30T02:46:03,42.805,6.029,0.015,0.003,0.023,107.0,110.0,102.0,13.3,1505.3,323.3,-0.7,1.8,2470.184,13.33,0.015,78.7
2019-11-30T02:49:03,42.805,6.029,0.024,0.034,-0.016,107.0,110.0,102.0,13.4,1505.3,326.9,-0.7,1.8,2470.206,13.33,0.041,35.2
2019-11-30T02:52:03,42.805,6.029,0.023,-0.006,-0.017,106.0,111.0,103.0,13.4,1505.3,324.9,-0.7,1.8,2470.195,13.33,0.023,104.6
2019-11-30T02:55:03,42.805,6.029,0.03,0.019,-0.002,106.0,111.0,102.0,13.3,1505.3,325.1,-0.7,1.8,2470.203,13.33,0.035,57.7
2019-11-30T02:58:03,42.805,6.029,0.016,-0.007,-0.015,107.0,111.0,101.0,13.4,1505.3,326.1,-0.7,1.8,2470.166,13.33,0.017,113.6
2019-11-30T03:04:03,42.805,6.029,0.027,0.02,-0.016,107.0,109.0,102.0,13.4,1505.3,324.9,-0.7,1.8,2470.195,13.31,0.033,53.5
2019-11-30T03:07:03,42.805,6.029,0.001,0.014,-0.029,105.0,110.0,101.0,13.4,1505.3,323.8,-0.7,1.8,2470.209,13.32,0.014,4.1
2019-11-30T03:10:03,42.805,6.029,0.013,0.015,-0.023,109.0,110.0,102.0,13.4,1505.3,324.8,-0.7,1.8,2470.207,13.32,0.019,40.9
2019-11-30T03:13:03,42.805,6.029,0.025,0.004,0.005,107.0,112.0,101.0,13.4,1505.3,323.3,-0.7,1.8,2470.205,13.33,0.025,80.9
2019-11-30T03:16:03,42.805,6.029,0.004,0.032,-0.02,107.0,110.0,102.0,13.4,1505.3,324.9,-0.7,1.8,2470.19,13.33,0.032,7.1
2019-11-30T03:19:03,42.805,6.029,0.03,0.016,-0.003,106.0,111.0,100.0,13.3,1505.3,327.1,-0.7,1.9,2470.191,13.33,0.034,61.9
2019-11-30T03:22:03,42.805,6.029,0.005,0.017,-0.03,105.0,110.0,102.0,13.3,1505.3,326.7,-0.7,1.8,2470.16,13.33,0.017,16.4
2019-11-30T03:25:03,42.805,6.029,0.024,0.007,-0.018,107.0,109.0,101.0,13.4,1505.3,327.6,-0.7,1.8,2470.159,13.33,0.025,73.7
2019-11-30T03:28:03,42.805,6.029,0.013,0.01,-0.042,107.0,112.0,102.0,13.4,1505.3,323.7,-0.7,1.8,2470.202,13.33,0.016,52.4
2019-11-30T03:31:03,42.805,6.029,0.007,0.012,-0.017,106.0,111.0,101.0,13.4,1505.3,324.9,-0.7,1.8,2470.194,13.33,0.013,30.3
2019-11-30T03:34:03,42.805,6.029,0.03,0.01,-0.012,106.0,111.0,101.0,13.3,1505.3,323.1,-0.7,1.8,2470.181,13.33,0.031,71.6
2019-11-30T03:37:03,42.805,6.029,0.023,0.023,-0.018,106.0,111.0,102.0,13.4,1505.3,325.6,-0.7,1.8,2470.172,13.33,0.032,45.0
2019-11-30T03:40:03,42.805,6.029,0.025,0.019,-0.018,105.0,111.0,103.0,13.3,1505.3,325.1,-0.7,1.8,2470.183,13.33,0.031,52.8
2019-11-30T03:43:03,42.805,6.029,0.028,0.027,-0.024,105.0,110.0,101.0,13.4,1505.3,324.5,-0.7,1.8,2470.184,13.33,0.038,46.0
2019-11-30T03:46:03,42.805,6.029,0.025,0.004,-0.045,107.0,111.0,103.0,13.4,1505.3,328.3,-0.7,1.8,2470.185,13.33,0.025,80.9
2019-11-30T03:49:03,42.805,6.029,0.02,0.014,-0.02,105.0,112.0,102.0,13.4,1505.3,325.2,-0.7,1.8,2470.211,13.33,0.024,55.0
2019-11-30T03:52:03,42.805,6.029,0.015,0.015,-0.014,107.0,112.0,101.0,13.4,1505.3,324.8,-0.7,1.9,2470.178,13.33,0.021,45.0
2019-11-30T03:55:03,42.805,6.029,0.026,0.018,0.003,106.0,111.0,100.0,13.4,1505.3,326.1,-0.7,1.9,2470.17,13.33,0.031,55.3
2019-11-30T03:58:03,42.805,6.029,0.013,0.004,-0.025,105.0,111.0,103.0,13.4,1505.3,324.0,-0.7,1.8,2470.186,13.33,0.013,72.9
2019-11-30T04:04:03,42.805,6.029,0.026,0.015,-0.007,106.0,111.0,102.0,13.4,1505.3,326.5,-0.7,1.8,2470.232,13.31,0.03,60.0
2019-11-30T04:07:03,42.805,6.029,0.033,0.017,-0.016,106.0,111.0,101.0,13.3,1505.3,323.0,-0.7,1.8,2470.212,13.32,0.037,62.7
2019-11-30T04:10:03,42.805,6.029,0.019,0.017,0.008,105.0,110.0,104.0,13.3,1505.3,325.5,-0.7,1.8,2470.198,13.33,0.025,48.2
2019-11-30T04:13:03,42.805,6.029,0.003,0.019,-0.009,106.0,111.0,104.0,13.4,1505.3,325.9,-0.7,1.8,2470.156,13.33,0.019,9.0
2019-11-30T04:16:03,42.805,6.029,0.033,0.006,-0.034,106.0,111.0,103.0,13.3,1505.3,326.0,-0.7,1.8,2470.188,13.33,0.033,79.7
2019-11-30T04:19:03,42.805,6.029,0.02,0.012,-0.016,107.0,111.0,104.0,13.4,1505.3,323.2,-0.7,1.8,2470.207,13.33,0.023,59.0
2019-11-30T04:22:03,42.805,6.029,0.007,0.032,0.009,107.0,111.0,102.0,13.3,1505.3,326.1,-0.7,1.8,2470.205,13.33,0.032,12.3
2019-11-30T04:25:03,42.805,6.029,0.025,0.013,-0.003,107.0,111.0,103.0,13.4,1505.3,325.4,-0.7,1.8,2470.178,13.33,0.028,62.5
2019-11-30T04:28:03,42.805,6.029,0.019,0.018,-0.018,106.0,112.0,103.0,13.4,1505.3,325.0,-0.7,1.8,2470.183,13.33,0.026,46.5
2019-11-30T04:31:03,42.805,6.029,0.03,0.005,-0.011,106.0,111.0,102.0,13.3,1505.3,324.8,-0.7,1.8,2470.159,13.33,0.03,80.5
2019-11-30T04:34:03,42.805,6.029,0.034,0.015,-0.025,105.0,111.0,104.0,13.4,1505.3,327.1,-0.8,1.8,2470.215,13.33,0.037,66.2
2019-11-30T04:37:03,42.805,6.029,0.001,0.034,-0.045,107.0,111.0,102.0,13.4,1505.3,324.9,-0.7,1.9,2470.153,13.33,0.034,1.7
2019-11-30T04:40:03,42.805,6.029,0.017,0.02,0.018,106.0,113.0,103.0,13.3,1505.3,324.8,-0.7,1.8,2470.208,13.33,0.026,40.4
2019-11-30T04:43:03,42.805,6.029,0.024,0.005,-0.023,106.0,111.0,103.0,13.3,1505.3,326.6,-0.7,1.8,2470.214,13.33,0.024,78.2
2019-11-30T04:46:03,42.805,6.029,0.03,0.025,-0.026,107.0,112.0,103.0,13.3,1505.3,326.3,-0.8,1.9,2470.156,13.33,0.039,50.2
2019-11-30T04:49:03,42.805,6.029,-0.003,0.017,-0.019,105.0,111.0,103.0,13.4,1505.3,325.1,-0.7,1.8,2470.192,13.33,0.017,350.0
2019-11-30T04:52:03,42.805,6.029,0.023,0.009,-0.014,106.0,111.0,103.0,13.4,1505.3,325.7,-0.7,1.8,2470.221,13.33,0.024,68.6
2019-11-30T04:55:03,42.805,6.029,0.014,0.002,-0.03,106.0,113.0,103.0,13.3,1505.3,325.6,-0.8,1.8,2470.181,13.33,0.014,81.9
2019-11-30T04:58:03,42.805,6.029,0.021,0.024,-0.039,107.0,112.0,101.0,13.4,1505.4,326.7,-0.7,1.8,2470.177,13.34,0.031,41.2
2019-11-30T05:04:03,42.805,6.029,0.009,0.002,-0.027,107.0,113.0,102.0,13.4,1505.3,327.9,-0.7,1.8,2470.185,13.32,0.009,77.5
2019-11-30T05:07:03,42.805,6.029,0.023,-0.001,-0.017,106.0,112.0,106.0,13.4,1505.3,323.5,-0.7,1.8,2470.198,13.33,0.023,92.5
2019-11-30T05:10:03,42.805,6.029,0.013,0.023,-0.045,107.0,112.0,103.0,13.4,1505.3,325.1,-0.7,1.8,2470.202,13.33,0.026,29.5
2019-11-30T05:13:03,42.805,6.029,0.014,0.039,0.011,108.0,113.0,103.0,13.4,1505.3,324.1,-0.7,1.8,2470.253,13.33,0.041,19.7
2019-11-30T05:16:03,42.805,6.029,0.017,0.041,-0.007,107.0,112.0,103.0,13.4,1505.4,324.0,-0.7,1.8,2470.167,13.34,0.044,22.5
2019-11-30T05:19:03,42.805,6.029,0.016,0.012,-0.008,109.0,112.0,103.0,13.4,1505.4,324.7,-0.7,1.9,2470.188,13.34,0.02,53.1
2019-11-30T05:22:03,42.805,6.029,0.029,0.048,0.027,108.0,112.0,106.0,13.3,1505.4,324.6,-0.7,1.8,2470.242,13.34,0.056,31.1
2019-11-30T05:25:03,42.805,6.029,0.015,0.018,-0.002,106.0,113.0,104.0,13.3,1505.4,325.4,-0.7,1.9,2470.238,13.34,0.023,39.8
2019-11-30T05:28:03,42.805,6.029,0.0,0.026,-0.028,107.0,114.0,102.0,13.4,1505.3,324.6,-0.7,1.8,2470.219,13.33,0.026,0.0
2019-11-30T05:31:03,42.805,6.029,0.004,0.031,0.01,108.0,112.0,104.0,13.3,1505.4,327.0,-0.7,1.9,2470.217,13.34,0.031,7.3
2019-11-30T05:34:03,42.805,6.029,0.016,-0.005,0.009,106.0,111.0,104.0,13.4,1505.4,323.3,-0.7,1.8,2470.205,13.34,0.016,107.4
2019-11-30T05:37:03,42.805,6.029,0.002,0.024,-0.033,106.0,112.0,103.0,13.4,1505.4,325.8,-0.7,1.8,2470.274,13.34,0.024,4.8
2019-11-30T05:40:03,42.805,6.029,0.02,0.009,-0.012,107.0,116.0,103.0,13.3,1505.4,328.2,-0.7,1.8,2470.213,13.34,0.021,65.8
2019-11-30T05:43:03,42.805,6.029,0.01,0.021,-0.018,107.0,112.0,103.0,13.3,1505.4,326.7,-0.7,1.8,2470.199,13.34,0.023,25.5
2019-11-30T05:46:03,42.805,6.029,0.0,0.022,-0.008,106.0,112.0,103.0,13.4,1505.4,326.1,-0.7,1.8,2470.284,13.34,0.022,0.0
2019-11-30T05:49:03,42.805,6.029,0.016,0.028,-0.013,107.0,112.0,102.0,13.3,1505.4,327.0,-0.7,1.8,2470.205,13.34,0.032,29.7
2019-11-30T05:52:03,42.805,6.029,0.013,0.017,0.007,106.0,112.0,103.0,13.3,1505.4,327.5,-0.7,1.9,2470.246,13.34,0.021,37.4
2019-11-30T05:55:03,42.805,6.029,0.009,0.026,0.002,105.0,112.0,103.0,13.4,1505.4,323.2,-0.7,1.8,2470.208,13.34,0.027,19.1
2019-11-30T05:58:03,42.805,6.029,0.021,0.012,-0.005,107.0,111.0,103.0,13.4,1505.4,326.5,-0.7,1.8,2470.23,13.34,0.024,60.3
2019-11-30T06:04:03,42.805,6.029,-0.021,0.043,-0.027,105.0,113.0,102.0,13.3,1505.3,324.7,-0.8,1.8,2470.268,13.32,0.047,334.0
2019-11-30T06:07:03,42.805,6.029,-0.003,0.015,-0.004,107.0,112.0,102.0,13.4,1505.3,324.5,-0.7,1.8,2470.262,13.32,0.015,348.7
2019-11-30T06:10:03,42.805,6.029,0.014,0.02,-0.009,106.0,112.0,103.0,13.4,1505.3,325.0,-0.7,1.9,2470.26,13.33,0.024,35.0
2019-11-30T06:13:03,42.805,6.029,-0.005,0.006,-0.027,107.0,113.0,104.0,13.4,1505.3,323.8,-0.7,1.9,2470.253,13.33,0.007,320.2
2019-11-30T06:16:03,42.805,6.029,0.009,0.016,0.003,106.0,112.0,103.0,13.3,1505.4,326.3,-0.7,1.8,2470.246,13.34,0.018,29.4
2019-11-30T06:19:03,42.805,6.029,0.008,0.02,-0.001,106.0,113.0,103.0,13.4,1505.4,327.0,-0.7,1.8,2470.271,13.34,0.021,21.8
2019-11-30T06:22:03,42.805,6.029,0.021,0.001,0.019,107.0,112.0,103.0,13.4,1505.4,326.4,-0.7,1.8,2470.278,13.34,0.021,87.3
2019-11-30T06:25:03,42.805,6.029,0.011,0.011,-0.006,107.0,113.0,104.0,13.3,1505.4,328.0,-0.7,1.8,2470.263,13.34,0.015,45.0
2019-11-30T06:28:03,42.805,6.029,0.027,0.009,0.0,107.0,112.0,105.0,13.4,1505.4,326.8,-0.7,1.8,2470.261,13.34,0.028,71.6
2019-11-30T06:31:03,42.805,6.029,0.001,0.023,-0.009,105.0,112.0,101.0,13.3,1505.4,327.1,-0.7,1.8,2470.292,13.34,0.023,2.5
2019-11-30T06:34:03,42.805,6.029,-0.003,0.016,-0.02,107.0,113.0,102.0,13.4,1505.4,326.5,-0.7,1.8,2470.304,13.34,0.016,349.4
2019-11-30T06:37:03,42.805,6.029,0.013,0.006,-0.012,107.0,111.0,102.0,13.4,1505.4,324.1,-0.7,1.8,2470.29,13.34,0.014,65.2
2019-11-30T06:40:03,42.805,6.029,-0.016,0.018,-0.013,107.0,112.0,103.0,13.4,1505.4,327.9,-0.7,1.8,2470.338,13.34,0.024,318.4
2019-11-30T06:43:03,42.805,6.029,0.008,0.028,-0.043,105.0,111.0,101.0,13.4,1505.4,326.9,-0.7,1.8,2470.338,13.34,0.029,15.9
2019-11-30T06:46:03,42.805,6.029,0.014,0.013,-0.007,106.0,112.0,102.0,13.4,1505.4,324.7,-0.7,1.8,2470.279,13.34,0.019,47.1
2019-11-30T06:49:03,42.805,6.029,0.003,0.026,0.0,104.0,111.0,103.0,13.4,1505.4,325.4,-0.7,1.9,2470.32,13.34,0.026,6.6
2019-11-30T06:52:03,42.805,6.029,0.0,0.018,-0.019,106.0,113.0,103.0,13.4,1505.4,323.2,-0.7,1.8,2470.309,13.34,0.018,0.0
2019-11-30T06:55:03,42.805,6.029,0.008,0.022,-0.003,107.0,111.0,102.0,13.4,1505.4,327.9,-0.7,1.8,2470.327,13.34,0.023,20.0
2019-11-30T06:58:03,42.805,6.029,0.006,0.023,-0.012,106.0,112.0,102.0,13.4,1505.4,326.0,-0.7,1.9,2470.326,13.34,0.023,14.6
2019-11-30T07:04:03,42.805,6.029,0.019,0.023,0.004,106.0,112.0,103.0,13.4,1505.3,326.6,-0.7,1.8,2470.3,13.32,0.029,39.6
2019-11-30T07:07:03,42.805,6.029,0.003,0.041,0.014,106.0,112.0,103.0,13.4,1505.3,325.9,-0.7,1.8,2470.374,13.33,0.041,4.2
2019-11-30T07:10:03,42.805,6.029,0.011,0.001,0.005,106.0,111.0,102.0,13.4,1505.3,325.2,-0.7,1.8,2470.299,13.33,0.011,84.8
2019-11-30T07:13:03,42.805,6.029,0.004,0.026,-0.008,108.0,112.0,101.0,13.4,1505.3,326.8,-0.7,1.8,2470.344,13.33,0.026,8.7
2019-11-30T07:16:03,42.805,6.029,0.003,0.009,-0.024,106.0,111.0,102.0,13.4,1505.3,323.0,-0.7,1.8,2470.348,13.33,0.009,18.4
2019-11-30T07:19:03,42.805,6.029,0.005,-0.005,-0.002,107.0,111.0,102.0,13.3,1505.4,328.6,-0.7,1.8,2470.339,13.34,0.007,135.0
2019-11-30T07:22:03,42.805,6.029,0.025,0.034,0.0,107.0,111.0,103.0,13.4,1505.4,326.6,-0.8,1.8,2470.359,13.34,0.042,36.3
2019-11-30T07:25:03,42.805,6.029,0.0,0.01,-0.015,105.0,112.0,103.0,13.3,1505.4,324.5,-0.8,1.8,2470.363,13.34,0.01,0.0
2019-11-30T07:28:03,42.805,6.029,0.024,0.037,-0.015,107.0,113.0,101.0,13.3,1505.4,324.5,-0.7,1.9,2470.355,13.34,0.044,33.0
2019-11-30T07:31:03,42.805,6.029,0.015,0.006,-0.007,105.0,113.0,101.0,13.3,1505.4,324.8,-0.7,1.8,2470.352,13.34,0.016,68.2
2019-11-30T07:34:03,42.805,6.029,0.022,0.021,0.003,106.0,113.0,102.0,13.4,1505.4,324.9,-0.7,1.9,2470.359,13.34,0.03,46.3
2019-11-30T07:37:03,42.805,6.029,0.019,0.029,-0.01,107.0,112.0,103.0,13.3,1505.4,324.0,-0.7,1.8,2470.388,13.34,0.034,33.2
2019-11-30T07:40:03,42.805,6.029,0.001,0.026,0.015,106.0,113.0,102.0,13.4,1505.4,327.3,-0.7,1.9,2470.365,13.34,0.026,2.2
2019-11-30T07:43:03,42.805,6.029,0.041,0.029,0.02,105.0,112.0,102.0,13.4,1505.4,326.6,-0.7,1.8,2470.384,13.34,0.05,54.7
2019-11-30T07:46:03,42.805,6.029,0.031,0.025,0.007,106.0,113.0,103.0,13.3,1505.4,326.4,-0.7,1.8,2470.384,13.34,0.039,51.1
2019-11-30T07:49:03,42.805,6.029,0.014,0.022,-0.027,105.0,112.0,103.0,13.3,1505.4,324.6,-0.7,1.9,2470.34,13.34,0.026,32.5
2019-11-30T07:52:03,42.805,6.029,0.012,0.022,-0.008,106.0,112.0,103.0,13.3,1505.4,323.8,-0.7,1.8,2470.366,13.34,0.025,28.6
2019-11-30T07:55:03,42.805,6.029,0.009,0.012,0.03,106.0,112.0,102.0,13.3,1505.4,325.0,-0.7,1.8,2470.375,13.34,0.015,36.9
2019-11-30T07:58:03,42.805,6.029,0.009,0.047,0.007,106.0,112.0,104.0,13.4,1505.4,323.8,-0.7,1.8,2470.351,13.34,0.047,10.8
2019-11-30T08:04:03,42.805,6.029,-0.002,0.021,-0.016,106.0,112.0,102.0,13.4,1505.3,325.4,-0.7,1.8,2470.415,13.32,0.021,354.6
2019-11-30T08:07:03,42.805,6.029,-0.008,0.016,-0.007,104.0,114.0,103.0,13.4,1505.3,327.6,-0.7,1.9,2470.438,13.33,0.017,333.4
2019-11-30T08:10:03,42.805,6.029,0.0,0.033,0.025,106.0,112.0,102.0,13.4,1505.3,324.6,-0.7,1.8,2470.368,13.33,0.033,0.0
2019-11-30T08:13:03,42.805,6.029,0.026,0.024,-0.025,106.0,113.0,103.0,13.4,1505.3,323.5,-0.7,1.8,2470.397,13.33,0.035,47.3
2019-11-30T08:16:03,42.805,6.029,0.018,0.017,0.003,106.0,113.0,103.0,13.3,1505.3,325.3,-0.7,1.8,2470.418,13.33,0.024,46.6
2019-11-30T08:19:03,42.805,6.029,0.022,0.032,-0.03,107.0,113.0,102.0,13.3,1505.3,326.3,-0.7,1.9,2470.382,13.33,0.038,34.5
2019-11-30T08:22:03,42.805,6.029,0.02,0.001,-0.022,105.0,112.0,104.0,13.4,1505.3,326.3,-0.7,1.8,2470.444,13.33,0.02,87.1
2019-11-30T08:25:03,42.805,6.029,0.007,0.018,0.006,106.0,113.0,102.0,13.3,1505.4,327.3,-0.7,1.8,2470.424,13.34,0.019,21.2
2019-11-30T08:28:03,42.805,6.029,0.012,0.032,-0.021,106.0,113.0,102.0,13.4,1505.4,327.0,-0.7,1.8,2470.401,13.34,0.034,20.6
2019-11-30T08:31:03,42.805,6.029,0.002,0.035,0.005,106.0,113.0,104.0,13.3,1505.3,324.9,-0.7,1.8,2470.387,13.33,0.035,3.3
2019-11-30T08:34:03,42.805,6.029,0.016,0.014,0.0,106.0,113.0,103.0,13.4,1505.3,325.2,-0.7,1.8,2470.419,13.33,0.021,48.8
2019-11-30T08:37:03,42.805,6.029,0.007,0.024,0.004,107.0,112.0,103.0,13.3,1505.3,325.0,-0.7,1.8,2470.387,13.33,0.025,16.3
2019-11-30T08:40:03,42.805,6.029,-0.003,0.026,0.001,106.0,113.0,102.0,13.4,1505.4,327.1,-0.7,1.8,2470.418,13.34,0.026,353.4
2019-11-30T08:43:03,42.805,6.029,0.004,0.029,-0.007,105.0,112.0,102.0,13.3,1505.4,326.1,-0.7,1.8,2470.407,13.34,0.029,7.8
2019-11-30T08:46:03,42.805,6.029,-0.005,0.032,-0.002,106.0,114.0,103.0,13.4,1505.4,327.8,-0.7,1.8,2470.453,13.34,0.032,351.1
2019-11-30T08:49:03,42.805,6.029,0.0,0.011,-0.013,106.0,113.0,102.0,13.4,1505.4,326.3,-0.7,1.8,2470.448,13.34,0.011,0.0
2019-11-30T08:52:03,42.805,6.029,-0.012,0.045,0.003,105.0,113.0,104.0,13.4,1505.4,326.9,-0.7,1.8,2470.416,13.34,0.046,345.1
2019-11-30T08:55:03,42.805,6.029,0.003,0.013,-0.001,107.0,113.0,104.0,13.4,1505.4,325.0,-0.7,1.8,2470.428,13.34,0.013,13.0
2019-11-30T08:58:03,42.805,6.029,-0.018,0.031,-0.032,109.0,112.0,103.0,13.4,1505.4,323.2,-0.7,1.8,2470.391,13.34,0.035,329.9
2019-11-30T09:04:03,42.805,6.029,-0.003,0.031,0.0,107.0,114.0,104.0,13.4,1505.3,327.0,-0.7,1.8,2470.451,13.31,0.031,354.5
2019-11-30T09:07:03,42.805,6.029,0.0,0.035,-0.001,107.0,112.0,103.0,13.3,1505.3,325.4,-0.7,1.8,2470.425,13.32,0.035,0.0
2019-11-30T09:10:03,42.805,6.029,-0.009,0.034,-0.046,108.0,113.0,102.0,13.4,1505.3,326.5,-0.7,1.8,2470.41,13.33,0.035,345.2
2019-11-30T09:13:03,42.805,6.029,0.012,0.028,-0.025,107.0,114.0,104.0,13.4,1505.3,327.1,-0.7,1.8,2470.411,13.33,0.03,23.2
2019-11-30T09:16:03,42.805,6.029,-0.018,0.009,-0.01,106.0,114.0,102.0,13.4,1505.3,326.7,-0.8,1.8,2470.436,13.33,0.02,296.6
2019-11-30T09:19:03,42.805,6.029,-0.003,0.02,-0.019,107.0,113.0,103.0,13.4,1505.3,324.7,-0.7,1.8,2470.447,13.33,0.02,351.5
2019-11-30T09:22:03,42.805,6.029,0.003,0.034,-0.013,106.0,114.0,104.0,13.3,1505.3,323.6,-0.7,1.8,2470.438,13.33,0.034,5.0
2019-11-30T09:25:03,42.805,6.029,-0.026,0.036,-0.01,108.0,113.0,103.0,13.4,1505.3,327.1,-0.7,1.8,2470.415,13.33,0.044,324.2
2019-11-30T09:28:03,42.805,6.029,0.016,0.032,-0.012,107.0,113.0,104.0,13.4,1505.3,325.9,-0.7,1.8,2470.423,13.33,0.035,26.6
2019-11-30T09:31:03,42.805,6.029,0.0,0.03,-0.017,107.0,113.0,104.0,13.4,1505.3,327.7,-0.7,1.9,2470.45,13.33,0.03,0.0
2019-11-30T09:34:03,42.805,6.029,0.003,0.0,0.019,108.0,114.0,102.0,13.4,1505.3,323.9,-0.7,1.9,2470.414,13.33,0.003,90.0
2019-11-30T09:37:03,42.805,6.029,-0.002,0.028,-0.029,108.0,113.0,104.0,13.4,1505.3,322.9,-0.7,1.8,2470.4,13.33,0.028,355.9
2019-11-30T09:40:03,42.805,6.029,0.012,0.012,-0.022,107.0,114.0,103.0,13.4,1505.3,327.2,-0.7,1.8,2470.416,13.33,0.016,45.0
2019-11-30T09:43:03,42.805,6.029,-0.009,0.028,0.0,107.0,113.0,103.0,13.3,1505.3,326.7,-0.7,1.8,2470.405,13.33,0.029,342.2
2019-11-30T09:46:03,42.805,6.029,-0.014,0.031,0.02,107.0,113.0,103.0,13.4,1505.3,327.7,-0.7,1.8,2470.457,13.33,0.034,335.7
2019-11-30T09:49:03,42.805,6.029,0.01,0.039,-0.024,108.0,115.0,103.0,13.4,1505.3,324.8,-0.7,1.8,2470.434,13.33,0.04,14.4
2019-11-30T09:52:03,42.805,6.029,0.0,0.022,-0.042,109.0,115.0,104.0,13.4,1505.3,327.1,-0.7,1.8,2470.437,13.33,0.022,0.0
2019-11-30T09:55:03,42.805,6.029,-0.028,0.025,-0.006,107.0,113.0,103.0,13.4,1505.3,325.1,-0.7,1.8,2470.441,13.33,0.037,311.8
2019-11-30T09:58:03,42.805,6.029,-0.009,0.052,0.014,107.0,114.0,103.0,13.4,1505.3,328.1,-0.7,1.8,2470.478,13.33,0.052,350.2
2019-11-30T10:04:03,42.805,6.029,0.004,0.022,-0.009,107.0,114.0,104.0,13.3,1505.3,325.0,-0.7,1.8,2470.443,13.31,0.022,10.3
2019-11-30T10:07:03,42.805,6.029,0.017,0.027,-0.005,107.0,115.0,104.0,13.4,1505.3,326.7,-0.7,1.9,2470.474,13.32,0.031,32.2
2019-11-30T10:10:03,42.805,6.029,-0.008,0.038,-0.001,109.0,115.0,105.0,13.4,1505.3,326.4,-0.7,1.8,2470.431,13.33,0.038,348.1